• In Latvia
  • List of Countries
  • For 7 days
  • Water Temperature
  • Satellite Maps
  • Weather Map
  • Weather Widgets
  • user-avatar
    Login

    Hourly Weather Bekobod

    Today, 21 August, Tuesday

    Time Temperature Precipitation Wind Pressure Humidity
    00:00 +27°C° 0 mm 2 mps 733 mmHg 48%
    01:00 +26°C° 0 mm 2 mps 733 mmHg 51%
    02:00 +25°C° 0 mm 2 mps 733 mmHg 53%
    03:00 +25°C° 0 mm 2 mps 733 mmHg 55%
    04:00 +25°C° 0 mm 2 mps 733 mmHg 56%
    05:00 +24°C° 0 mm 2 mps 733 mmHg 63%
    06:00 +25°C° 0 mm 3 mps 733 mmHg 60%
    07:00 +25°C° 0 mm 3 mps 734 mmHg 58%
    08:00 +26°C° 0 mm 3 mps 734 mmHg 56%
    09:00 +27°C° 0 mm 3 mps 734 mmHg 52%
    10:00 +29°C° 0 mm 3 mps 734 mmHg 47%
    11:00 +30°C° 0 mm 4 mps 734 mmHg 44%
    12:00 +32°C° 0 mm 4 mps 734 mmHg 41%
    13:00 +33°C° 0 mm 4 mps 733 mmHg 38%
    14:00 +34°C° 0 mm 5 mps 733 mmHg 35%
    15:00 +34°C° 0 mm 5 mps 733 mmHg 34%
    16:00 +33°C° 0 mm 5 mps 733 mmHg 33%
    17:00 +33°C° 0 mm 5 mps 733 mmHg 32%
    18:00 +30°C° 0 mm 5 mps 733 mmHg 33%
    19:00 +29°C° 0 mm 4 mps 734 mmHg 33%
    20:00 +27°C° 0 mm 4 mps 734 mmHg 34%
    21:00 +26°C° 0 mm 3 mps 734 mmHg 35%
    22:00 +25°C° 0 mm 3 mps 734 mmHg 35%
    23:00 +24°C° 0 mm 2 mps 734 mmHg 36%

    Tomorrow, 22 August, Wednesday

    Time Temperature Precipitation Wind Pressure Humidity
    00:00 +23°C° 0 mm 2 mps 734 mmHg 37%
    01:00 +23°C° 0 mm 2 mps 733 mmHg 37%
    02:00 +21°C° 0 mm 2 mps 733 mmHg 38%
    03:00 +21°C° 0 mm 2 mps 733 mmHg 39%
    04:00 +20°C° 0 mm 2 mps 733 mmHg 39%
    05:00 +20°C° 0 mm 2 mps 733 mmHg 40%
    06:00 +21°C° 0 mm 2 mps 733 mmHg 38%
    07:00 +23°C° 0 mm 2 mps 733 mmHg 36%
    08:00 +24°C° 0 mm 2 mps 733 mmHg 33%
    09:00 +26°C° 0 mm 2 mps 733 mmHg 30%
    10:00 +28°C° 0 mm 2 mps 733 mmHg 28%
    11:00 +29°C° 0 mm 2 mps 733 mmHg 25%
    12:00 +30°C° 0 mm 2 mps 733 mmHg 24%
    13:00 +31°C° 0 mm 2 mps 732 mmHg 23%
    14:00 +34°C° 0 mm 3 mps 732 mmHg 22%
    15:00 +34°C° 0 mm 3 mps 732 mmHg 22%
    16:00 +34°C° 0 mm 3 mps 732 mmHg 22%
    17:00 +34°C° 0 mm 3 mps 731 mmHg 22%
    18:00 +31°C° 0 mm 2 mps 732 mmHg 24%
    19:00 +30°C° 0 mm 2 mps 732 mmHg 26%
    20:00 +28°C° 0 mm 2 mps 732 mmHg 28%
    21:00 +27°C° 0 mm 2 mps 732 mmHg 30%
    22:00 +26°C° 0 mm 2 mps 732 mmHg 31%
    23:00 +25°C° 0 mm 2 mps 732 mmHg 32%

    Day after tomorrow, 23 August, Thursday

    Time Temperature Precipitation Wind Pressure Humidity
    00:00 +25°C° 0 mm 2 mps 732 mmHg 33%
    01:00 +24°C° 0 mm 2 mps 731 mmHg 34%
    02:00 +24°C° 0 mm 2 mps 731 mmHg 34%
    03:00 +23°C° 0 mm 1 mps 731 mmHg 35%
    04:00 +23°C° 0 mm 1 mps 731 mmHg 36%
    05:00 +22°C° 0 mm 1 mps 731 mmHg 37%
    06:00 +24°C° 0 mm 1 mps 731 mmHg 34%
    07:00 +25°C° 0 mm 1 mps 732 mmHg 31%
    08:00 +27°C° 0 mm 1 mps 732 mmHg 27%
    09:00 +28°C° 0 mm 2 mps 732 mmHg 25%
    10:00 +30°C° 0 mm 2 mps 732 mmHg 23%
    11:00 +32°C° 0 mm 2 mps 731 mmHg 21%
    12:00 +34°C° 0 mm 2 mps 731 mmHg 20%
    13:00 +35°C° 0 mm 2 mps 731 mmHg 19%
    14:00 +36°C° 0 mm 2 mps 730 mmHg 18%
    15:00 +36°C° 0 mm 3 mps 730 mmHg 18%
    16:00 +36°C° 0 mm 3 mps 730 mmHg 19%
    17:00 +36°C° 0 mm 3 mps 730 mmHg 19%
    18:00 +34°C° 0 mm 3 mps 730 mmHg 21%
    19:00 +31°C° 0 mm 3 mps 730 mmHg 23%
    20:00 +29°C° 0 mm 2 mps 731 mmHg 25%
    21:00 +28°C° 0 mm 2 mps 731 mmHg 26%
    22:00 +27°C° 0 mm 2 mps 731 mmHg 27%
    23:00 +26°C° 0 mm 1 mps 731 mmHg 28%

    24 August, Friday

    Time Temperature Precipitation Wind Pressure Humidity
    00:00 +26°C° 0 mm 1 mps 731 mmHg 28%
    01:00 +25°C° 0 mm 1 mps 731 mmHg 27%
    02:00 +25°C° 0 mm 1 mps 731 mmHg 27%
    03:00 +24°C° 0 mm 2 mps 731 mmHg 27%
    04:00 +24°C° 0 mm 2 mps 731 mmHg 27%
    05:00 +24°C° 0 mm 2 mps 731 mmHg 27%
    06:00 +25°C° 0 mm 2 mps 731 mmHg 25%
    07:00 +27°C° 0 mm 2 mps 732 mmHg 22%
    08:00 +29°C° 0 mm 2 mps 732 mmHg 20%
    09:00 +30°C° 0 mm 2 mps 732 mmHg 18%
    10:00 +33°C° 0 mm 3 mps 732 mmHg 17%
    11:00 +34°C° 0 mm 3 mps 732 mmHg 16%
    12:00 +35°C° 0 mm 4 mps 732 mmHg 15%
    13:00 +36°C° 0 mm 4 mps 732 mmHg 15%
    14:00 +37°C° 0 mm 4 mps 732 mmHg 14%
    15:00 +37°C° 0 mm 4 mps 732 mmHg 14%
    16:00 +37°C° 0 mm 4 mps 732 mmHg 14%
    17:00 +36°C° 0 mm 5 mps 732 mmHg 14%
    18:00 +34°C° 0 mm 4 mps 732 mmHg 15%
    19:00 +31°C° 0 mm 3 mps 732 mmHg 17%
    20:00 +29°C° 0 mm 2 mps 732 mmHg 19%
    21:00 +28°C° 0 mm 2 mps 732 mmHg 20%
    22:00 +27°C° 0 mm 2 mps 732 mmHg 21%
    23:00 +26°C° 0 mm 2 mps 732 mmHg 22%

    25 August, Saturday

    Time Temperature Precipitation Wind Pressure Humidity
    00:00 +26°C° 0 mm 2 mps 732 mmHg 23%
    01:00 +25°C° 0 mm 2 mps 732 mmHg 24%
    02:00 +24°C° 0 mm 2 mps 731 mmHg 25%
    03:00 +24°C° 0 mm 2 mps 731 mmHg 27%
    04:00 +23°C° 0 mm 2 mps 731 mmHg 28%
    05:00 +23°C° 0 mm 2 mps 731 mmHg 29%
    06:00 +24°C° 0 mm 2 mps 731 mmHg 27%
    07:00 +26°C° 0 mm 2 mps 732 mmHg 25%
    08:00 +27°C° 0 mm 2 mps 732 mmHg 23%
    09:00 +29°C° 0 mm 2 mps 732 mmHg 22%
    10:00 +31°C° 0 mm 2 mps 731 mmHg 20%
    11:00 +32°C° 0 mm 2 mps 731 mmHg 19%
    12:00 +34°C° 0 mm 3 mps 731 mmHg 18%
    13:00 +35°C° 0 mm 3 mps 730 mmHg 16%
    14:00 +36°C° 0 mm 3 mps 730 mmHg 15%
    15:00 +36°C° 0 mm 3 mps 730 mmHg 15%
    16:00 +36°C° 0 mm 4 mps 729 mmHg 15%
    17:00 +36°C° 0 mm 4 mps 729 mmHg 15%
    18:00 +33°C° 0 mm 4 mps 729 mmHg 18%
    19:00 +30°C° 0 mm 3 mps 730 mmHg 22%
    20:00 +28°C° 0 mm 3 mps 730 mmHg 25%
    21:00 +27°C° 0 mm 3 mps 730 mmHg 26%
    22:00 +26°C° 0 mm 3 mps 729 mmHg 27%
    23:00 +25°C° 0 mm 3 mps 729 mmHg 28%

    26 August, Sunday

    Time Temperature Precipitation Wind Pressure Humidity
    00:00 +24°C° 0 mm 3 mps 729 mmHg 29%
    01:00 +22°C° 0 mm 3 mps 729 mmHg 31%
    02:00 +21°C° 0 mm 3 mps 729 mmHg 32%
    03:00 +21°C° 0 mm 3 mps 729 mmHg 33%
    04:00 +20°C° 0 mm 3 mps 730 mmHg 34%
    05:00 +19°C° 0 mm 2 mps 730 mmHg 35%
    06:00 +21°C° 0 mm 3 mps 730 mmHg 33%
    07:00 +22°C° 0 mm 3 mps 731 mmHg 31%
    08:00 +24°C° 0 mm 3 mps 731 mmHg 29%
    09:00 +25°C° 0 mm 3 mps 731 mmHg 26%
    10:00 +27°C° 0 mm 4 mps 731 mmHg 23%
    11:00 +29°C° 0 mm 4 mps 731 mmHg 20%
    12:00 +29°C° 0 mm 4 mps 731 mmHg 19%
    13:00 +30°C° 0 mm 4 mps 731 mmHg 18%
    14:00 +32°C° 0 mm 4 mps 730 mmHg 18%
    15:00 +32°C° 0 mm 5 mps 730 mmHg 18%
    16:00 +32°C° 0 mm 5 mps 731 mmHg 18%
    17:00 +32°C° 0 mm 5 mps 731 mmHg 19%
    18:00 +29°C° 0 mm 4 mps 731 mmHg 22%
    19:00 +27°C° 0 mm 4 mps 731 mmHg 24%
    20:00 +25°C° 0 mm 3 mps 732 mmHg 27%
    21:00 +24°C° 0 mm 3 mps 732 mmHg 29%
    22:00 +22°C° 0 mm 3 mps 732 mmHg 30%
    23:00 +21°C° 0 mm 2 mps 732 mmHg 31%
    Show more